{"data":{"norad_id":58253,"epoch":"2026-05-25T02:43:58.311840Z","epoch_age_seconds":55309,"freshness":"FRESH","line1":"1 58253U 23172A   26145.11386935 -.00000364  00000+0  00000+0 0  9994","line2":"2 58253   0.0510 101.0898 0002734 329.8242 328.2907  1.00270344  9421","mean_motion":1.00270344,"eccentricity":0.0002734,"inclination_deg":0.051,"raan_deg":101.0898,"arg_perigee_deg":329.8242,"mean_anomaly_deg":328.2907,"bstar":0,"rev_number":942,"period_min":1436.1175423912,"perigee_km":35775.470982475,"apogee_km":35798.526878802,"semimajor_km":42165.135930638,"source":"CELESTRAK","updated_at":"2026-05-25T13:38:14.143374Z"}}